FW8634 Weather Reports


time (UTC)temp
C
wind
direction
speed
KPH
gust
KPH
rain 1hr
cm
rain 24hr
cm
rain mn
cm
humidity
%
barometer
mb
20260906031552 21 0 0.0 0.0 0.00 0.69 0.69 97 1015.2
20260906030053 21 0 0.0 0.0 0.00 0.69 0.69 96 1015.0
20260906024554 21 0 0.0 0.0 0.00 0.69 0.69 97 1015.1
20260906023053 21 0 0.0 0.0 0.00 0.69 0.69 97 1014.9
20260906021557 22 0 0.0 0.0 0.00 0.69 0.69 97 1015.0
20260906020100 22 0 0.0 0.0 0.00 0.69 0.69 97 1014.7
20260906014605 22 0 0.0 0.0 0.00 0.69 0.69 97 1014.6
20260906013107 22 0 0.0 4.8 0.00 0.69 0.69 96 1014.5
20260906011604 22 0 0.0 0.0 0.00 0.69 0.69 96 1014.3
20260906010048 22 0 0.0 0.0 0.00 0.69 0.69 96 1014.2
20260906004551 23 0 0.0 0.0 0.00 0.69 0.69 95 1014.2
20260906003050 23 0 0.0 0.0 0.00 0.69 0.69 94 1013.9
20260906001553 23 0 0.0 0.0 0.00 0.69 0.69 94 1013.7
20260906000045 23 0 0.0 0.0 0.00 0.69 0.69 92 1013.7
20260905234543 25 0 0.0 0.0 0.00 0.69 0.69 88 1013.6
20260905233106 26 0 0.0 0.0 0.00 0.69 0.69 86 1013.3
20260905231554 26 0 0.0 1.6 0.00 0.69 0.69 84 1013.3
20260905230047 28 0 0.0 0.0 0.00 0.69 0.69 75 1013.2
20260905224610 28 0 0.0 0.0 0.00 0.69 0.69 76 1013.2
20260905223054 28 0 0.0 0.0 0.00 0.69 0.69 75 1013.1
20260905221546 28 0 0.0 0.0 0.00 0.69 0.69 78 1013.2
20260905220049 27 0 0.0 0.0 0.00 0.69 0.69 80 1013.1
20260905214552 27 0 0.0 1.6 0.00 0.69 0.69 81 1013.4
20260905213049 27 0 0.0 0.0 0.00 0.69 0.69 82 1013.5
20260905211554 26 0 0.0 0.0 0.00 0.69 0.69 85 1013.6
20260905210053 25 0 0.0 9.7 0.00 0.69 0.69 89 1013.6
20260905204548 25 0 0.0 1.6 0.00 0.69 0.69 89 1013.9
20260905203101 24 0 0.0 0.0 0.00 0.69 0.69 89 1014.2
20260905201601 23 0 0.0 0.0 0.00 0.69 0.69 92 1014.4
20260905200052 23 0 0.0 0.0 0.00 0.69 0.69 92 1014.5
20260905194549 23 0 0.0 0.0 0.00 0.69 0.69 93 1014.6
20260905193053 23 0 0.0 0.0 0.00 0.69 0.69 93 1014.7
20260905191553 23 0 0.0 6.4 0.00 0.69 0.69 89 1014.7
20260905190107 23 0 0.0 3.2 0.13 0.69 0.69 92 1014.9
20260905184609 23 0 0.0 1.6 0.69 0.69 0.69 93 1014.7
20260905183043 23 0 0.0 0.0 0.69 0.69 0.69 92 1014.5
20260905181553 23 89 4.8 17.7 0.69 0.69 0.69 92 1014.3
20260905180049 26 91 8.0 29.0 0.51 0.51 0.51 79 1015.1
20260905174554 32 260 6.4 16.1 0.00 0.00 0.00 62 1014.9
20260905173052 32 0 3.2 12.9 0.00 0.00 0.00 60 1015.0
20260905171552 32 0 6.4 16.1 0.00 0.00 0.00 63 1015.3
20260905170055 32 170 6.4 17.7 0.00 0.00 0.00 60 1015.4
20260905164556 32 245 6.4 14.5 0.00 0.00 0.00 62 1015.4
20260905163054 32 199 6.4 14.5 0.00 0.00 0.00 65 1015.7
20260905161553 31 150 4.8 19.3 0.00 0.00 0.00 65 1016.0
20260905160049 31 172 6.4 14.5 0.00 0.00 0.00 68 1016.3
20260905154555 31 155 1.6 14.5 0.00 0.00 0.00 68 1016.2
20260905153055 30 232 4.8 17.7 0.00 0.00 0.00 67 1015.9
20260905151604 30 0 3.2 12.9 0.00 0.00 0.00 73 1016.0
20260905150046 30 0 0.0 4.8 0.00 0.00 0.00 73 1015.9
20260905144554 30 210 0.0 4.8 0.00 0.00 0.00 69 1015.9
20260905143053 30 0 0.0 0.0 0.00 0.00 0.00 76 1016.1
20260905141556 30 0 0.0 0.0 0.00 0.00 0.00 76 1016.2
20260905140053 28 0 0.0 0.0 0.00 0.00 0.00 78 1016.1
20260905134554 27 0 0.0 0.0 0.00 0.00 0.00 83 1016.2
20260905133051 26 0 0.0 0.0 0.00 0.00 0.00 84 1016.2
20260905131600 26 0 0.0 0.0 0.00 0.00 0.00 84 1016.3
20260905130050 26 0 0.0 0.0 0.00 0.00 0.00 85 1016.4
20260905124553 25 0 0.0 0.0 0.00 0.00 0.00 89 1016.4
20260905123054 25 0 0.0 0.0 0.00 0.00 0.00 89 1016.3
20260905121551 23 0 0.0 0.0 0.00 0.00 0.00 95 1016.3
20260905120052 22 0 0.0 0.0 0.00 0.00 0.00 96 1016.2
20260905114548 22 0 0.0 0.0 0.00 0.00 0.00 98 1016.1
20260905113045 21 0 0.0 0.0 0.00 0.00 0.00 98 1015.9
20260905111558 21 0 0.0 0.0 0.00 0.00 0.00 98 1015.7
20260905110052 21 0 0.0 0.0 0.00 0.00 0.00 98 1015.3
20260905104550 21 0 0.0 0.0 0.00 0.00 0.00 98 1015.2
20260905103045 21 0 0.0 0.0 0.00 0.00 0.00 98 1015.1
20260905101618 21 0 0.0 0.0 0.00 0.00 0.00 98 1015.0
20260905100053 21 0 0.0 0.0 0.00 0.00 0.00 98 1014.9
20260905094549 21 0 0.0 0.0 0.00 0.00 0.00 98 1015.0
20260905093045 21 0 0.0 0.0 0.00 0.00 0.00 98 1015.0
20260905091624 21 0 0.0 0.0 0.00 0.00 0.00 97 1015.0
20260905090053 21 0 0.0 0.0 0.00 0.00 0.00 97 1015.0
20260905084604 21 0 0.0 0.0 0.00 0.00 0.00 97 1015.2
20260905083045 22 0 0.0 0.0 0.00 0.00 0.00 97 1015.4
20260905081556 22 0 0.0 0.0 0.00 0.00 0.00 97 1015.5
20260905080052 22 0 0.0 0.0 0.00 0.00 0.00 98 1015.7
20260905074555 22 0 0.0 0.0 0.00 0.00 0.00 97 1015.7
20260905073046 22 0 0.0 0.0 0.00 0.00 0.00 97 1015.8
20260905071558 22 0 0.0 0.0 0.00 0.00 0.00 97 1015.9
20260905064552 22 0 0.0 0.0 0.00 0.00 0.00 96 1016.1
20260905063058 22 0 0.0 0.0 0.00 0.00 0.00 96 1016.4
20260905061607 22 0 0.0 0.0 0.00 0.00 0.00 97 1016.4
20260905060059 22 0 0.0 0.0 0.00 0.00 0.00 96 1016.6
20260905054552 22 0 0.0 0.0 0.00 0.00 0.00 96 1017.0
20260905053105 23 0 0.0 0.0 0.00 0.00 0.00 94 1017.2
20260905051546 23 0 0.0 0.0 0.00 0.00 0.00 95 1017.1
20260905050056 23 0 0.0 0.0 0.00 0.00 0.00 95 1017.0
20260905044553 23 0 0.0 0.0 0.00 0.00 0.00 94 1017.0
20260905043049 23 0 0.0 0.0 0.00 0.00 0.00 94 1017.1
20260905041547 23 0 0.0 0.0 0.00 0.00 0.00 93 1016.8
20260905040053 24 0 0.0 0.0 0.00 0.00 0.00 91 1016.7
20260905034551 23 0 0.0 0.0 0.00 0.00 0.00 93 1016.7
20260905033059 23 0 0.0 0.0 0.00 0.00 0.00 92 1016.6